Tracking 19709 objects as of 19-Jun-2019
HD Live streaming from Space Station
objects crossing your sky now

DELTA 1 DEB

Track DELTA 1 DEB now!
10-day predictions


NORAD ID: 7137
Int'l Code: 1973-086DB
Perigee: 1,401.4 km
Apogee: 1,480.6 km
Inclination: 101.5 °
Period: 114.5 minutes
Semi major axis: 7812 km
RCS: 0.1063 m2 (medium)
Launch date: November 6, 1973
Source: United States (US)
Launch site: AIR FORCE WESTERN TEST RANGE (AFWTR)

Note: This is SATELLITE DEBRIS
aabbcc
Your satellite tracking list
Your tracking list is empty




NASA's NSSDC Master Catalog

Two Line Element Set (TLE):
1  7137U 73086DB  19169.92571617 +.00000179 +00000-0 +13245-2 0  9990
2  7137 101.4773 152.5749 0050687 073.7044 342.0545 12.57356840085598
Source of the keplerian elements: AFSPC